Time,TemperatureF,DewpointF,PressureIn,WindDirection,WindDirectionDegrees,WindSpeedMPH,WindSpeedGustMPH,Humidity,HourlyPrecipIn,Conditions,Clouds,dailyrainin,SoftwareType,DateUTC
2013-07-28 00:01:00,68.0,65.0,29.90,WSW,248,0.0,0.0,90,0.00,,,0.00,Wunderground v.1.15,2013-07-28 04:01:00,
2013-07-28 00:02:00,67.9,64.9,29.90,WSW,245,0.0,0.0,90,0.00,,,0.00,Wunderground v.1.15,2013-07-28 04:02:00,
2013-07-28 00:03:00,67.8,64.8,29.90,WNW,283,0.0,0.0,90,0.00,,,0.00,Wunderground v.1.15,2013-07-28 04:03:00,
2013-07-28 00:04:00,67.8,64.8,29.90,WSW,245,0.0,0.0,90,0.00,,,0.00,Wunderground v.1.15,2013-07-28 04:04:00,
2013-07-28 00:07:00,67.6,64.6,29.89,WSW,254,0.0,0.0,90,0.00,,,0.00,Wunderground v.1.15,2013-07-28 04:07:00,
2013-07-28 00:13:00,67.1,64.1,29.89,WSW,256,0.0,0.0,90,0.00,,,0.00,Wunderground v.1.15,2013-07-28 04:13:00,
2013-07-28 00:19:00,66.6,63.6,29.89,WSW,256,0.0,0.0,90,0.00,,,0.00,Wunderground v.1.15,2013-07-28 04:19:00,
2013-07-28 00:24:00,66.2,63.5,29.89,WNW,300,0.0,0.0,91,0.00,,,0.00,Wunderground v.1.15,2013-07-28 04:24:00,
2013-07-28 00:30:00,65.6,62.9,29.89,WNW,300,0.0,0.0,91,0.00,,,0.00,Wunderground v.1.15,2013-07-28 04:30:00,
2013-07-28 00:36:00,65.2,63.1,29.89,WNW,300,0.0,0.0,93,0.00,,,0.00,Wunderground v.1.15,2013-07-28 04:36:00,
2013-07-28 00:42:00,64.8,63.0,29.89,WNW,300,0.0,0.0,94,0.00,,,0.00,Wunderground v.1.15,2013-07-28 04:42:00,
2013-07-28 00:47:00,64.4,62.6,29.89,WNW,300,0.0,0.0,94,0.00,,,0.00,Wunderground v.1.15,2013-07-28 04:47:00,
2013-07-28 00:53:00,63.9,62.4,29.89,WNW,300,0.0,0.0,95,0.00,,,0.00,Wunderground v.1.15,2013-07-28 04:53:00,
2013-07-28 00:58:00,63.6,62.1,29.89,WNW,300,0.0,0.0,95,0.00,,,0.00,Wunderground v.1.15,2013-07-28 04:58:00,
2013-07-28 01:04:00,63.5,62.3,29.89,WNW,299,0.0,0.0,96,0.00,,,0.00,Wunderground v.1.15,2013-07-28 05:04:00,
2013-07-28 01:10:00,63.1,61.9,29.89,WNW,299,0.0,0.0,96,0.00,,,0.00,Wunderground v.1.15,2013-07-28 05:10:00,
2013-07-28 01:15:00,62.8,61.6,29.89,WNW,300,0.0,0.0,96,0.00,,,0.00,Wunderground v.1.15,2013-07-28 05:15:00,
2013-07-28 01:21:00,62.9,62.0,29.90,WNW,300,0.0,0.0,97,0.00,,,0.00,Wunderground v.1.15,2013-07-28 05:21:00,
2013-07-28 01:26:00,63.1,62.2,29.90,WNW,299,0.0,0.0,97,0.00,,,0.00,Wunderground v.1.15,2013-07-28 05:26:00,
2013-07-28 01:32:00,63.2,62.3,29.90,WNW,289,0.0,0.0,97,0.00,,,0.00,Wunderground v.1.15,2013-07-28 05:32:00,
2013-07-28 01:38:00,63.4,62.2,29.90,WNW,283,0.0,1.0,96,0.00,,,0.00,Wunderground v.1.15,2013-07-28 05:38:00,
2013-07-28 01:43:00,63.5,61.7,29.90,West,267,0.0,0.0,94,0.00,,,0.00,Wunderground v.1.15,2013-07-28 05:43:00,
2013-07-28 01:49:00,63.6,61.8,29.90,WSW,245,0.0,0.0,94,0.00,,,0.00,Wunderground v.1.15,2013-07-28 05:49:00,
2013-07-28 01:55:00,63.6,61.5,29.90,NW,305,0.0,0.0,93,0.00,,,0.00,Wunderground v.1.15,2013-07-28 05:55:00,
2013-07-28 02:00:00,63.7,61.3,29.90,West,276,0.0,0.0,92,0.00,,,0.00,Wunderground v.1.15,2013-07-28 06:00:00,
2013-07-28 02:06:00,63.9,61.2,29.91,WNW,285,1.0,3.0,91,0.00,,,0.00,Wunderground v.1.15,2013-07-28 06:06:00,
2013-07-28 02:11:00,64.0,61.0,29.91,WNW,287,1.0,4.0,90,0.00,,,0.00,Wunderground v.1.15,2013-07-28 06:11:00,
2013-07-28 02:17:00,64.0,60.7,29.91,West,277,1.0,4.0,89,0.00,,,0.00,Wunderground v.1.15,2013-07-28 06:17:00,
2013-07-28 02:23:00,63.7,60.4,29.91,WNW,283,0.0,1.0,89,0.00,,,0.00,Wunderground v.1.15,2013-07-28 06:23:00,
2013-07-28 02:28:00,63.5,59.9,29.91,West,267,0.0,2.0,88,0.00,,,0.00,Wunderground v.1.15,2013-07-28 06:28:00,
2013-07-28 02:34:00,63.4,59.5,29.91,WNW,298,1.0,2.0,87,0.00,,,0.00,Wunderground v.1.15,2013-07-28 06:34:00,
2013-07-28 02:39:00,63.4,59.5,29.91,West,278,1.0,4.0,87,0.00,,,0.00,Wunderground v.1.15,2013-07-28 06:39:00,
2013-07-28 02:45:00,63.1,59.2,29.91,West,281,1.0,1.0,87,0.00,,,0.00,Wunderground v.1.15,2013-07-28 06:45:00,
2013-07-28 02:51:00,62.8,59.2,29.91,WNW,293,0.0,0.0,88,0.00,,,0.00,Wunderground v.1.15,2013-07-28 06:51:00,
2013-07-28 02:56:00,62.6,59.0,29.91,WNW,288,0.0,2.0,88,0.00,,,0.00,Wunderground v.1.15,2013-07-28 06:56:00,
2013-07-28 03:02:00,62.4,58.8,29.91,WNW,297,0.0,0.0,88,0.00,,,0.00,Wunderground v.1.15,2013-07-28 07:02:00,
2013-07-28 03:07:00,62.2,58.6,29.91,West,271,0.0,0.0,88,0.00,,,0.00,Wunderground v.1.15,2013-07-28 07:07:00,
2013-07-28 03:13:00,62.0,58.7,29.91,NNW,330,0.0,0.0,89,0.00,,,0.00,Wunderground v.1.15,2013-07-28 07:13:00,
2013-07-28 03:18:00,61.8,58.5,29.91,WNW,295,0.0,0.0,89,0.00,,,0.00,Wunderground v.1.15,2013-07-28 07:18:00,
2013-07-28 03:24:00,61.5,58.5,29.91,West,270,0.0,1.0,90,0.00,,,0.00,Wunderground v.1.15,2013-07-28 07:24:00,
2013-07-28 03:30:00,61.3,58.3,29.91,NW,307,0.0,1.0,90,0.00,,,0.00,Wunderground v.1.15,2013-07-28 07:30:00,
2013-07-28 03:36:00,61.2,58.2,29.92,West,269,0.0,1.0,90,0.00,,,0.00,Wunderground v.1.15,2013-07-28 07:36:00,
2013-07-28 03:41:00,61.1,58.1,29.92,WNW,295,0.0,1.0,90,0.00,,,0.00,Wunderground v.1.15,2013-07-28 07:41:00,
2013-07-28 03:46:00,61.0,58.0,29.92,WNW,290,0.0,2.0,90,0.00,,,0.00,Wunderground v.1.15,2013-07-28 07:46:00,
2013-07-28 03:52:00,60.8,57.8,29.92,West,281,0.0,0.0,90,0.00,,,0.00,Wunderground v.1.15,2013-07-28 07:52:00,
2013-07-28 03:58:00,60.6,57.7,29.92,WNW,290,0.0,2.0,90,0.00,,,0.00,Wunderground v.1.15,2013-07-28 07:58:00,
2013-07-28 04:03:00,60.5,57.2,29.92,West,276,1.0,1.0,89,0.00,,,0.00,Wunderground v.1.15,2013-07-28 08:03:00,
2013-07-28 04:09:00,60.3,57.0,29.92,West,272,1.0,1.0,89,0.00,,,0.00,Wunderground v.1.15,2013-07-28 08:09:00,
2013-07-28 04:14:00,60.2,56.9,29.93,NW,310,0.0,2.0,89,0.00,,,0.00,Wunderground v.1.15,2013-07-28 08:14:00,
2013-07-28 04:20:00,60.1,56.5,29.92,West,278,0.0,0.0,88,0.00,,,0.00,Wunderground v.1.15,2013-07-28 08:20:00,
2013-07-28 04:25:00,59.9,56.6,29.93,WNW,295,0.0,0.0,89,0.00,,,0.00,Wunderground v.1.15,2013-07-28 08:25:00,
2013-07-28 04:31:00,59.7,56.5,29.92,WNW,303,0.0,1.0,89,0.00,,,0.00,Wunderground v.1.15,2013-07-28 08:31:00,
2013-07-28 04:37:00,59.5,56.3,29.92,WNW,298,0.0,1.0,89,0.00,,,0.00,Wunderground v.1.15,2013-07-28 08:37:00,
2013-07-28 04:42:00,59.4,56.2,29.92,WNW,283,0.0,0.0,89,0.00,,,0.00,Wunderground v.1.15,2013-07-28 08:42:00,
2013-07-28 04:48:00,59.2,56.3,29.93,WNW,284,1.0,2.0,90,0.00,,,0.00,Wunderground v.1.15,2013-07-28 08:48:00,
2013-07-28 04:53:00,59.1,56.2,29.93,West,267,1.0,1.0,90,0.00,,,0.00,Wunderground v.1.15,2013-07-28 08:53:00,
2013-07-28 04:58:00,59.0,56.1,29.93,West,259,0.0,1.0,90,0.00,,,0.00,Wunderground v.1.15,2013-07-28 08:58:00,
2013-07-28 05:04:00,58.8,55.9,29.93,WNW,299,0.0,1.0,90,0.00,,,0.00,Wunderground v.1.15,2013-07-28 09:04:00,
2013-07-28 05:09:00,58.6,55.7,29.94,West,264,0.0,1.0,90,0.00,,,0.00,Wunderground v.1.15,2013-07-28 09:09:00,
2013-07-28 05:15:00,58.4,55.5,29.93,West,276,0.0,1.0,90,0.00,,,0.00,Wunderground v.1.15,2013-07-28 09:15:00,
2013-07-28 05:21:00,58.2,55.6,29.93,West,276,0.0,0.0,91,0.00,,,0.00,Wunderground v.1.15,2013-07-28 09:21:00,
2013-07-28 05:27:00,57.9,55.3,29.94,West,276,0.0,0.0,91,0.00,,,0.00,Wunderground v.1.15,2013-07-28 09:27:00,
2013-07-28 05:33:00,57.7,55.4,29.94,WSW,248,0.0,0.0,92,0.00,,,0.00,Wunderground v.1.15,2013-07-28 09:33:00,
2013-07-28 05:39:00,57.6,55.3,29.94,WSW,250,0.0,0.0,92,0.00,,,0.00,Wunderground v.1.15,2013-07-28 09:39:00,
2013-07-28 05:44:00,57.5,55.2,29.94,West,273,0.0,1.0,92,0.00,,,0.00,Wunderground v.1.15,2013-07-28 09:44:00,
2013-07-28 05:50:00,57.5,55.2,29.95,West,280,0.0,0.0,92,0.00,,,0.00,Wunderground v.1.15,2013-07-28 09:50:00,
2013-07-28 05:56:00,57.4,55.1,29.95,West,280,0.0,0.0,92,0.00,,,0.00,Wunderground v.1.15,2013-07-28 09:56:00,
2013-07-28 06:01:00,57.4,55.1,29.95,West,278,0.0,0.0,92,0.00,,,0.00,Wunderground v.1.15,2013-07-28 10:01:00,
2013-07-28 06:07:00,57.4,55.1,29.95,WNW,284,0.0,0.0,92,0.00,,,0.00,Wunderground v.1.15,2013-07-28 10:07:00,
2013-07-28 06:12:00,57.5,55.2,29.95,West,276,0.0,0.0,92,0.00,,,0.00,Wunderground v.1.15,2013-07-28 10:12:00,
2013-07-28 06:18:00,57.6,55.3,29.95,WSW,254,0.0,0.0,92,0.00,,,0.00,Wunderground v.1.15,2013-07-28 10:18:00,
2013-07-28 06:23:00,57.7,55.4,29.96,WSW,243,0.0,0.0,92,0.00,,,0.00,Wunderground v.1.15,2013-07-28 10:23:00,
2013-07-28 06:29:00,57.7,55.4,29.96,WSW,243,0.0,0.0,92,0.00,,,0.00,Wunderground v.1.15,2013-07-28 10:29:00,
2013-07-28 06:35:00,57.6,55.3,29.97,WSW,243,0.0,0.0,92,0.00,,,0.00,Wunderground v.1.15,2013-07-28 10:35:00,
2013-07-28 06:40:00,57.7,55.7,29.97,West,262,0.0,0.0,93,0.00,,,0.00,Wunderground v.1.15,2013-07-28 10:40:00,
2013-07-28 06:46:00,57.9,55.6,29.97,West,259,0.0,0.0,92,0.00,,,0.00,Wunderground v.1.15,2013-07-28 10:46:00,
2013-07-28 06:52:00,58.0,55.7,29.97,WSW,250,0.0,0.0,92,0.00,,,0.00,Wunderground v.1.15,2013-07-28 10:52:00,
2013-07-28 06:57:00,58.1,55.8,29.98,SW,220,0.0,1.0,92,0.00,,,0.00,Wunderground v.1.15,2013-07-28 10:57:00,
2013-07-28 07:02:00,58.2,55.9,29.98,West,273,0.0,1.0,92,0.00,,,0.00,Wunderground v.1.15,2013-07-28 11:02:00,
2013-07-28 07:08:00,58.3,55.7,29.98,WSW,252,0.0,1.0,91,0.00,,,0.00,Wunderground v.1.15,2013-07-28 11:08:00,
2013-07-28 07:14:00,58.5,55.9,29.98,WSW,239,1.0,2.0,91,0.00,,,0.00,Wunderground v.1.15,2013-07-28 11:14:00,
2013-07-28 07:20:00,58.5,55.6,29.98,West,267,1.0,1.0,90,0.00,,,0.00,Wunderground v.1.15,2013-07-28 11:20:00,
2013-07-28 07:25:00,58.6,55.7,29.98,West,260,1.0,1.0,90,0.00,,,0.00,Wunderground v.1.15,2013-07-28 11:25:00,
2013-07-28 07:31:00,59.0,56.1,29.99,WNW,290,1.0,1.0,90,0.00,,,0.00,Wunderground v.1.15,2013-07-28 11:31:00,
2013-07-28 07:37:00,59.3,56.1,29.99,WNW,287,0.0,1.0,89,0.00,,,0.00,Wunderground v.1.15,2013-07-28 11:37:00,
2013-07-28 07:43:00,59.5,56.3,29.99,SW,236,1.0,1.0,89,0.00,,,0.00,Wunderground v.1.15,2013-07-28 11:43:00,
2013-07-28 07:48:00,59.7,56.1,29.99,SSW,207,1.0,2.0,88,0.00,,,0.00,Wunderground v.1.15,2013-07-28 11:48:00,
2013-07-28 07:54:00,59.9,56.0,29.99,West,260,1.0,4.0,87,0.00,,,0.00,Wunderground v.1.15,2013-07-28 11:54:00,
2013-07-28 07:59:00,59.9,56.0,29.99,WSW,257,2.0,4.0,87,0.00,,,0.00,Wunderground v.1.15,2013-07-28 11:59:00,
2013-07-28 08:05:00,59.6,55.7,29.99,West,270,2.0,3.0,87,0.00,,,0.00,Wunderground v.1.15,2013-07-28 12:05:00,
2013-07-28 08:10:00,59.5,55.6,30.00,WNW,283,2.0,4.0,87,0.00,,,0.00,Wunderground v.1.15,2013-07-28 12:10:00,
2013-07-28 08:16:00,59.1,55.2,30.00,WNW,283,2.0,4.0,87,0.00,,,0.00,Wunderground v.1.15,2013-07-28 12:16:00,
2013-07-28 08:21:00,59.1,55.5,30.00,WNW,283,2.0,2.0,88,0.00,,,0.00,Wunderground v.1.15,2013-07-28 12:21:00,
2013-07-28 08:26:00,59.5,55.6,30.00,WNW,290,2.0,4.0,87,0.00,,,0.00,Wunderground v.1.15,2013-07-28 12:26:00,
2013-07-28 08:32:00,60.1,56.2,30.00,WNW,290,2.0,3.0,87,0.00,,,0.00,Wunderground v.1.15,2013-07-28 12:32:00,
2013-07-28 08:37:00,60.5,55.6,30.00,WNW,288,2.0,3.0,84,0.00,,,0.00,Wunderground v.1.15,2013-07-28 12:37:00,
2013-07-28 08:43:00,60.9,56.0,30.00,NNW,348,1.0,2.0,84,0.00,,,0.00,Wunderground v.1.15,2013-07-28 12:43:00,
2013-07-28 08:48:00,61.4,56.5,30.01,WNW,283,1.0,3.0,84,0.00,,,0.00,Wunderground v.1.15,2013-07-28 12:48:00,
2013-07-28 08:53:00,61.7,55.5,30.01,WSW,253,1.0,2.0,80,0.00,,,0.00,Wunderground v.1.15,2013-07-28 12:53:00,
2013-07-28 08:59:00,62.1,56.2,30.01,WSW,249,1.0,2.0,81,0.00,,,0.00,Wunderground v.1.15,2013-07-28 12:59:00,
2013-07-28 09:05:00,62.6,55.6,30.01,West,280,1.0,4.0,78,0.00,,,0.00,Wunderground v.1.15,2013-07-28 13:05:00,
2013-07-28 09:10:00,62.8,55.5,30.01,WNW,283,1.0,3.0,77,0.00,,,0.00,Wunderground v.1.15,2013-07-28 13:10:00,
2013-07-28 09:16:00,63.1,56.1,30.01,West,259,1.0,3.0,78,0.00,,,0.00,Wunderground v.1.15,2013-07-28 13:16:00,
2013-07-28 09:22:00,63.3,54.9,30.01,NW,322,2.0,3.0,74,0.00,,,0.00,Wunderground v.1.15,2013-07-28 13:22:00,
2013-07-28 09:28:00,63.7,54.9,30.01,WNW,293,2.0,3.0,73,0.00,,,0.00,Wunderground v.1.15,2013-07-28 13:28:00,
2013-07-28 09:33:00,64.0,55.2,30.00,West,270,1.0,3.0,73,0.00,,,0.00,Wunderground v.1.15,2013-07-28 13:33:00,
2013-07-28 09:39:00,63.9,54.3,30.00,WNW,291,2.0,4.0,71,0.00,,,0.00,Wunderground v.1.15,2013-07-28 13:39:00,
2013-07-28 09:44:00,64.2,55.0,30.00,WSW,238,2.0,3.0,72,0.00,,,0.00,Wunderground v.1.15,2013-07-28 13:44:00,
2013-07-28 09:49:00,64.7,55.1,30.00,NW,315,1.0,3.0,71,0.00,,,0.00,Wunderground v.1.15,2013-07-28 13:49:00,
2013-07-28 09:55:00,65.1,55.1,30.00,NNW,330,1.0,5.0,70,0.00,,,0.00,Wunderground v.1.15,2013-07-28 13:55:00,
2013-07-28 10:00:00,64.9,54.1,30.00,NW,309,2.0,2.0,68,0.00,,,0.00,Wunderground v.1.15,2013-07-28 14:00:00,
2013-07-28 10:06:00,64.9,54.9,30.00,NNW,345,2.0,4.0,70,0.00,,,0.00,Wunderground v.1.15,2013-07-28 14:06:00,
2013-07-28 10:12:00,65.3,54.9,30.00,WNW,295,2.0,2.0,69,0.00,,,0.00,Wunderground v.1.15,2013-07-28 14:12:00,
2013-07-28 10:17:00,65.4,55.0,30.00,WNW,283,2.0,5.0,69,0.00,,,0.00,Wunderground v.1.15,2013-07-28 14:17:00,
2013-07-28 10:23:00,65.3,54.5,30.01,SW,233,3.0,4.0,68,0.00,,,0.00,Wunderground v.1.15,2013-07-28 14:23:00,
2013-07-28 10:28:00,65.8,55.3,30.00,NNW,338,2.0,5.0,69,0.00,,,0.00,Wunderground v.1.15,2013-07-28 14:28:00,
2013-07-28 10:34:00,65.8,54.5,30.00,NNW,345,2.0,5.0,67,0.00,,,0.00,Wunderground v.1.15,2013-07-28 14:34:00,
2013-07-28 10:40:00,65.7,53.2,30.00,West,269,2.0,2.0,64,0.00,,,0.00,Wunderground v.1.15,2013-07-28 14:40:00,
2013-07-28 10:45:00,65.7,53.2,30.00,WSW,252,2.0,2.0,64,0.00,,,0.00,Wunderground v.1.15,2013-07-28 14:45:00,
2013-07-28 10:51:00,65.8,53.3,30.00,WNW,287,2.0,2.0,64,0.00,,,0.00,Wunderground v.1.15,2013-07-28 14:51:00,
2013-07-28 10:56:00,66.0,53.9,30.01,West,266,2.0,3.0,65,0.00,,,0.00,Wunderground v.1.15,2013-07-28 14:56:00,
2013-07-28 11:02:00,66.4,53.8,30.01,WNW,287,2.0,4.0,64,0.00,,,0.00,Wunderground v.1.15,2013-07-28 15:02:00,
2013-07-28 11:07:00,66.2,54.5,30.01,NW,311,2.0,4.0,66,0.00,,,0.00,Wunderground v.1.15,2013-07-28 15:07:00,
2013-07-28 11:13:00,66.4,54.3,30.01,West,272,2.0,4.0,65,0.00,,,0.00,Wunderground v.1.15,2013-07-28 15:13:00,
2013-07-28 11:19:00,66.5,53.9,30.01,WNW,298,3.0,8.0,64,0.00,,,0.00,Wunderground v.1.15,2013-07-28 15:19:00,
2013-07-28 11:24:00,66.3,53.3,30.01,SW,218,3.0,6.0,63,0.00,,,0.00,Wunderground v.1.15,2013-07-28 15:24:00,
2013-07-28 11:30:00,67.0,55.7,30.02,WSW,248,1.0,3.0,67,0.00,,,0.00,Wunderground v.1.15,2013-07-28 15:30:00,
2013-07-28 11:36:00,66.9,53.9,30.02,WSW,257,2.0,5.0,63,0.00,,,0.00,Wunderground v.1.15,2013-07-28 15:36:00,
2013-07-28 11:41:00,67.3,54.7,30.02,SW,236,3.0,4.0,64,0.00,,,0.00,Wunderground v.1.15,2013-07-28 15:41:00,
2013-07-28 11:47:00,66.9,53.5,30.02,WNW,289,4.0,5.0,62,0.00,,,0.00,Wunderground v.1.15,2013-07-28 15:47:00,
2013-07-28 11:52:00,66.9,53.5,30.02,West,276,4.0,7.0,62,0.00,,,0.00,Wunderground v.1.15,2013-07-28 15:52:00,
2013-07-28 11:58:00,66.8,54.2,30.02,West,276,4.0,7.0,64,0.00,,,0.00,Wunderground v.1.15,2013-07-28 15:58:00,
2013-07-28 12:04:00,67.5,54.5,30.02,WNW,285,3.0,4.0,63,0.00,,,0.00,Wunderground v.1.15,2013-07-28 16:04:00,
2013-07-28 12:10:00,67.9,54.0,30.03,WNW,287,3.0,6.0,61,0.00,,,0.00,Wunderground v.1.15,2013-07-28 16:10:00,
2013-07-28 12:15:00,68.1,54.1,30.03,WNW,283,3.0,6.0,61,0.00,,,0.00,Wunderground v.1.15,2013-07-28 16:15:00,
2013-07-28 12:21:00,68.1,52.8,30.03,NW,326,4.0,7.0,58,0.00,,,0.00,Wunderground v.1.15,2013-07-28 16:21:00,
2013-07-28 12:28:00,68.5,53.6,30.03,WNW,291,4.0,7.0,59,0.00,,,0.00,Wunderground v.1.15,2013-07-28 16:28:00,
2013-07-28 12:33:00,68.6,54.2,30.03,WNW,300,3.0,5.0,60,0.00,,,0.00,Wunderground v.1.15,2013-07-28 16:33:00,
2013-07-28 12:39:00,68.7,53.3,30.03,West,274,3.0,5.0,58,0.00,,,0.00,Wunderground v.1.15,2013-07-28 16:39:00,
2013-07-28 12:44:00,68.4,52.6,30.03,WNW,297,4.0,7.0,57,0.00,,,0.00,Wunderground v.1.15,2013-07-28 16:44:00,
2013-07-28 12:50:00,68.2,52.4,30.02,WNW,285,5.0,5.0,57,0.00,,,0.00,Wunderground v.1.15,2013-07-28 16:50:00,
2013-07-28 12:56:00,68.2,52.4,30.03,North,11,4.0,5.0,57,0.00,,,0.00,Wunderground v.1.15,2013-07-28 16:56:00,
2013-07-28 13:01:00,68.7,54.7,30.02,NW,311,3.0,6.0,61,0.00,,,0.00,Wunderground v.1.15,2013-07-28 17:01:00,
2013-07-28 13:07:00,68.5,53.6,30.02,NNE,22,3.0,6.0,59,0.00,,,0.00,Wunderground v.1.15,2013-07-28 17:07:00,
2013-07-28 13:12:00,68.6,53.2,30.02,West,272,3.0,5.0,58,0.00,,,0.00,Wunderground v.1.15,2013-07-28 17:12:00,
2013-07-28 13:18:00,69.2,51.8,30.02,WNW,293,3.0,5.0,54,0.00,,,0.00,Wunderground v.1.15,2013-07-28 17:18:00,
2013-07-28 13:24:00,69.5,54.5,30.02,SW,223,3.0,6.0,59,0.00,,,0.00,Wunderground v.1.15,2013-07-28 17:24:00,
2013-07-28 13:30:00,69.1,53.2,30.02,WNW,287,4.0,4.0,57,0.00,,,0.00,Wunderground v.1.15,2013-07-28 17:30:00,
2013-07-28 13:35:00,69.5,52.6,30.02,WNW,295,4.0,5.0,55,0.00,,,0.00,Wunderground v.1.15,2013-07-28 17:35:00,
2013-07-28 13:41:00,69.2,52.3,30.02,WNW,295,3.0,3.0,55,0.00,,,0.00,Wunderground v.1.15,2013-07-28 17:41:00,
2013-07-28 13:46:00,69.8,53.9,30.02,WSW,250,2.0,3.0,57,0.00,,,0.00,Wunderground v.1.15,2013-07-28 17:46:00,
2013-07-28 13:52:00,70.1,56.0,30.02,North,11,3.0,3.0,61,0.00,,,0.00,Wunderground v.1.15,2013-07-28 17:52:00,
2013-07-28 13:57:00,70.1,53.2,30.02,NW,309,3.0,6.0,55,0.00,,,0.00,Wunderground v.1.15,2013-07-28 17:57:00,
2013-07-28 14:03:00,71.1,53.1,30.02,WSW,250,3.0,3.0,53,0.00,,,0.00,Wunderground v.1.15,2013-07-28 18:03:00,
2013-07-28 14:08:00,71.0,52.0,30.02,West,279,2.0,5.0,51,0.00,,,0.00,Wunderground v.1.15,2013-07-28 18:08:00,
2013-07-28 14:14:00,70.9,51.9,30.02,WSW,238,3.0,5.0,51,0.00,,,0.00,Wunderground v.1.15,2013-07-28 18:14:00,
2013-07-28 14:19:00,71.1,54.6,30.01,West,261,3.0,5.0,56,0.00,,,0.00,Wunderground v.1.15,2013-07-28 18:19:00,
2013-07-28 14:25:00,71.2,51.6,30.01,West,276,2.0,3.0,50,0.00,,,0.00,Wunderground v.1.15,2013-07-28 18:25:00,
2013-07-28 14:31:00,71.3,52.2,30.01,NNW,331,3.0,4.0,51,0.00,,,0.00,Wunderground v.1.15,2013-07-28 18:31:00,
2013-07-28 14:36:00,71.1,52.0,30.01,WSW,253,3.0,5.0,51,0.00,,,0.00,Wunderground v.1.15,2013-07-28 18:36:00,
2013-07-28 14:42:00,71.2,53.7,30.01,WSW,239,3.0,4.0,54,0.00,,,0.00,Wunderground v.1.15,2013-07-28 18:42:00,
2013-07-28 14:47:00,71.5,52.4,30.01,WSW,241,2.0,4.0,51,0.00,,,0.00,Wunderground v.1.15,2013-07-28 18:47:00,
2013-07-28 14:53:00,71.7,53.1,30.01,West,260,2.0,4.0,52,0.00,,,0.00,Wunderground v.1.15,2013-07-28 18:53:00,
2013-07-28 14:59:00,71.4,51.8,30.00,NW,315,3.0,4.0,50,0.00,,,0.00,Wunderground v.1.15,2013-07-28 18:59:00,
2013-07-28 15:04:00,71.4,51.2,30.01,NNW,334,2.0,4.0,49,0.00,,,0.00,Wunderground v.1.15,2013-07-28 19:04:00,
2013-07-28 15:10:00,71.4,52.3,30.00,WNW,295,2.0,6.0,51,0.00,,,0.00,Wunderground v.1.15,2013-07-28 19:10:00,
2013-07-28 15:15:00,71.5,53.5,30.00,WSW,255,3.0,6.0,53,0.00,,,0.00,Wunderground v.1.15,2013-07-28 19:15:00,
2013-07-28 15:21:00,71.8,53.7,30.00,WSW,243,2.0,2.0,53,0.00,,,0.00,Wunderground v.1.15,2013-07-28 19:21:00,
2013-07-28 15:27:00,71.8,53.2,30.01,West,272,3.0,5.0,52,0.00,,,0.00,Wunderground v.1.15,2013-07-28 19:27:00,
2013-07-28 15:32:00,71.6,51.4,30.00,North,359,4.0,4.0,49,0.00,,,0.00,Wunderground v.1.15,2013-07-28 19:32:00,
2013-07-28 15:38:00,71.6,52.5,30.00,WSW,257,3.0,5.0,51,0.00,,,0.00,Wunderground v.1.15,2013-07-28 19:38:00,
2013-07-28 15:43:00,72.0,54.4,30.00,West,279,3.0,6.0,54,0.00,,,0.00,Wunderground v.1.15,2013-07-28 19:43:00,
2013-07-28 15:49:00,72.1,52.4,30.00,WNW,290,3.0,6.0,50,0.00,,,0.00,Wunderground v.1.15,2013-07-28 19:49:00,
2013-07-28 15:55:00,72.5,54.4,30.00,West,259,2.0,5.0,53,0.00,,,0.00,Wunderground v.1.15,2013-07-28 19:55:00,
2013-07-28 16:00:00,72.4,53.8,30.00,WNW,288,3.0,3.0,52,0.00,,,0.00,Wunderground v.1.15,2013-07-28 20:00:00,
2013-07-28 16:06:00,72.8,53.1,30.00,NNW,343,3.0,3.0,50,0.00,,,0.00,Wunderground v.1.15,2013-07-28 20:06:00,
2013-07-28 16:12:00,72.8,53.6,30.00,WSW,239,3.0,5.0,51,0.00,,,0.00,Wunderground v.1.15,2013-07-28 20:12:00,
2013-07-28 16:17:00,72.5,53.9,30.00,West,280,3.0,5.0,52,0.00,,,0.00,Wunderground v.1.15,2013-07-28 20:17:00,
2013-07-28 16:23:00,72.7,51.9,30.00,WNW,295,2.0,3.0,48,0.00,,,0.00,Wunderground v.1.15,2013-07-28 20:23:00,
2013-07-28 16:29:00,72.7,51.9,30.00,NW,325,1.0,3.0,48,0.00,,,0.00,Wunderground v.1.15,2013-07-28 20:29:00,
2013-07-28 16:35:00,72.6,53.4,30.00,WSW,253,2.0,5.0,51,0.00,,,0.00,Wunderground v.1.15,2013-07-28 20:35:00,
2013-07-28 16:40:00,73.5,55.8,29.99,WSW,254,1.0,3.0,54,0.00,,,0.00,Wunderground v.1.15,2013-07-28 20:40:00,
2013-07-28 16:46:00,73.1,53.4,29.99,WSW,238,2.0,4.0,50,0.00,,,0.00,Wunderground v.1.15,2013-07-28 20:46:00,
2013-07-28 16:52:00,73.2,53.4,29.99,West,274,2.0,3.0,50,0.00,,,0.00,Wunderground v.1.15,2013-07-28 20:52:00,
2013-07-28 16:57:00,73.3,55.6,29.99,WNW,288,2.0,3.0,54,0.00,,,0.00,Wunderground v.1.15,2013-07-28 20:57:00,
2013-07-28 17:02:00,73.7,55.0,29.99,NW,305,2.0,4.0,52,0.00,,,0.00,Wunderground v.1.15,2013-07-28 21:02:00,
2013-07-28 17:08:00,73.7,53.3,29.99,NW,309,3.0,7.0,49,0.00,,,0.00,Wunderground v.1.15,2013-07-28 21:08:00,
2013-07-28 17:14:00,73.3,54.6,29.99,NW,323,3.0,4.0,52,0.00,,,0.00,Wunderground v.1.15,2013-07-28 21:14:00,
2013-07-28 17:19:00,73.3,53.5,29.99,SW,235,2.0,4.0,50,0.00,,,0.00,Wunderground v.1.15,2013-07-28 21:19:00,
2013-07-28 17:25:00,73.7,54.4,29.99,WNW,288,2.0,4.0,51,0.00,,,0.00,Wunderground v.1.15,2013-07-28 21:25:00,
2013-07-28 17:31:00,74.0,55.8,30.00,WNW,293,2.0,3.0,53,0.00,,,0.00,Wunderground v.1.15,2013-07-28 21:31:00,
2013-07-28 17:36:00,74.1,54.3,30.00,SSW,211,2.0,3.0,50,0.00,,,0.00,Wunderground v.1.15,2013-07-28 21:36:00,
2013-07-28 17:42:00,74.4,55.6,30.00,West,274,1.0,3.0,52,0.00,,,0.00,Wunderground v.1.15,2013-07-28 21:42:00,
2013-07-28 17:48:00,74.4,55.1,30.00,WSW,240,2.0,3.0,51,0.00,,,0.00,Wunderground v.1.15,2013-07-28 21:48:00,
2013-07-28 17:53:00,74.5,54.1,30.00,WSW,250,2.0,4.0,49,0.00,,,0.00,Wunderground v.1.15,2013-07-28 21:53:00,
2013-07-28 17:59:00,74.8,52.6,30.00,West,266,2.0,4.0,46,0.00,,,0.00,Wunderground v.1.15,2013-07-28 21:59:00,
2013-07-28 18:05:00,74.8,56.0,30.00,WSW,248,1.0,6.0,52,0.00,,,0.00,Wunderground v.1.15,2013-07-28 22:05:00,
2013-07-28 18:10:00,75.2,54.7,30.00,SW,218,1.0,1.0,49,0.00,,,0.00,Wunderground v.1.15,2013-07-28 22:10:00,
2013-07-28 18:16:00,75.1,52.9,30.00,WNW,298,1.0,4.0,46,0.00,,,0.00,Wunderground v.1.15,2013-07-28 22:16:00,
2013-07-28 18:21:00,74.9,52.7,30.00,West,278,1.0,2.0,46,0.00,,,0.00,Wunderground v.1.15,2013-07-28 22:21:00,
2013-07-28 18:27:00,74.1,54.3,30.00,SW,222,1.0,2.0,50,0.00,,,0.00,Wunderground v.1.15,2013-07-28 22:27:00,
2013-07-28 18:33:00,74.5,55.2,30.00,WNW,284,1.0,2.0,51,0.00,,,0.00,Wunderground v.1.15,2013-07-28 22:33:00,
2013-07-28 18:38:00,74.7,55.9,30.00,WSW,256,1.0,2.0,52,0.00,,,0.00,Wunderground v.1.15,2013-07-28 22:38:00,
2013-07-28 18:44:00,74.6,55.3,30.00,West,262,2.0,3.0,51,0.00,,,0.00,Wunderground v.1.15,2013-07-28 22:44:00,
2013-07-28 18:49:00,74.4,52.9,30.01,West,269,2.0,5.0,47,0.00,,,0.00,Wunderground v.1.15,2013-07-28 22:49:00,
2013-07-28 18:55:00,74.4,56.2,30.01,NW,317,1.0,2.0,53,0.00,,,0.00,Wunderground v.1.15,2013-07-28 22:55:00,
2013-07-28 19:00:00,74.1,55.3,30.01,SW,228,1.0,2.0,52,0.00,,,0.00,Wunderground v.1.15,2013-07-28 23:00:00,
2013-07-28 19:06:00,73.3,55.1,30.01,West,273,2.0,3.0,53,0.00,,,0.00,Wunderground v.1.15,2013-07-28 23:06:00,
2013-07-28 19:12:00,72.3,55.7,30.01,West,275,1.0,1.0,56,0.00,,,0.00,Wunderground v.1.15,2013-07-28 23:12:00,
2013-07-28 19:17:00,71.6,55.6,30.02,WNW,301,1.0,2.0,57,0.00,,,0.00,Wunderground v.1.15,2013-07-28 23:17:00,
2013-07-28 19:23:00,71.8,56.7,30.02,West,278,1.0,1.0,59,0.00,,,0.00,Wunderground v.1.15,2013-07-28 23:23:00,
2013-07-28 19:28:00,72.6,55.0,30.02,NW,304,0.0,1.0,54,0.00,,,0.00,Wunderground v.1.15,2013-07-28 23:28:00,
2013-07-28 19:34:00,72.9,56.8,30.02,West,270,0.0,2.0,57,0.00,,,0.00,Wunderground v.1.15,2013-07-28 23:34:00,
2013-07-28 19:40:00,73.2,55.6,30.02,NNW,343,1.0,1.0,54,0.00,,,0.00,Wunderground v.1.15,2013-07-28 23:40:00,
2013-07-28 19:45:00,73.0,56.4,30.02,WNW,302,1.0,2.0,56,0.00,,,0.00,Wunderground v.1.15,2013-07-28 23:45:00,
2013-07-28 19:50:00,72.8,55.2,30.02,WNW,293,2.0,2.0,54,0.00,,,0.00,Wunderground v.1.15,2013-07-28 23:50:00,
2013-07-28 19:56:00,72.6,55.5,30.02,WNW,285,1.0,2.0,55,0.00,,,0.00,Wunderground v.1.15,2013-07-28 23:56:00,
2013-07-28 20:02:00,72.4,55.3,30.02,West,280,1.0,3.0,55,0.00,,,0.00,Wunderground v.1.15,2013-07-29 00:02:00,
2013-07-28 20:07:00,72.2,55.6,30.02,NNW,332,0.0,3.0,56,0.00,,,0.00,Wunderground v.1.15,2013-07-29 00:07:00,
2013-07-28 20:13:00,72.0,55.9,30.03,WNW,291,0.0,1.0,57,0.00,,,0.00,Wunderground v.1.15,2013-07-29 00:13:00,
2013-07-28 20:18:00,71.9,56.3,30.03,WSW,248,0.0,1.0,58,0.00,,,0.00,Wunderground v.1.15,2013-07-29 00:18:00,
2013-07-28 20:24:00,71.4,55.4,30.03,WNW,283,0.0,0.0,57,0.00,,,0.00,Wunderground v.1.15,2013-07-29 00:24:00,
2013-07-28 20:29:00,70.4,55.8,30.03,West,276,0.0,0.0,60,0.00,,,0.00,Wunderground v.1.15,2013-07-29 00:29:00,
2013-07-28 20:35:00,69.3,56.2,30.03,West,276,0.0,0.0,63,0.00,,,0.00,Wunderground v.1.15,2013-07-29 00:35:00,
2013-07-28 20:41:00,68.4,56.6,30.03,West,276,0.0,0.0,66,0.00,,,0.00,Wunderground v.1.15,2013-07-29 00:41:00,
2013-07-28 20:46:00,67.7,56.8,30.04,West,276,0.0,0.0,68,0.00,,,0.00,Wunderground v.1.15,2013-07-29 00:46:00,
2013-07-28 20:52:00,66.8,56.7,30.04,West,276,0.0,0.0,70,0.00,,,0.00,Wunderground v.1.15,2013-07-29 00:52:00,
2013-07-28 20:57:00,66.2,56.9,30.04,West,276,0.0,0.0,72,0.00,,,0.00,Wunderground v.1.15,2013-07-29 00:57:00,
2013-07-28 21:02:00,65.7,56.8,30.04,West,276,0.0,0.0,73,0.00,,,0.00,Wunderground v.1.15,2013-07-29 01:02:00,
2013-07-28 21:08:00,65.1,57.0,30.04,West,276,0.0,0.0,75,0.00,,,0.00,Wunderground v.1.15,2013-07-29 01:08:00,
2013-07-28 21:13:00,64.6,56.9,30.04,West,276,0.0,0.0,76,0.00,,,0.00,Wunderground v.1.15,2013-07-29 01:13:00,
2013-07-28 21:20:00,63.9,56.5,30.04,West,276,0.0,0.0,77,0.00,,,0.00,Wunderground v.1.15,2013-07-29 01:20:00,
2013-07-28 21:25:00,63.5,57.2,30.04,West,276,0.0,0.0,80,0.00,,,0.00,Wunderground v.1.15,2013-07-29 01:25:00,
2013-07-28 21:32:00,62.9,57.0,30.05,West,276,0.0,0.0,81,0.00,,,0.00,Wunderground v.1.15,2013-07-29 01:32:00,
2013-07-28 21:38:00,62.6,56.7,30.05,West,276,0.0,0.0,81,0.00,,,0.00,Wunderground v.1.15,2013-07-29 01:38:00,
2013-07-28 21:44:00,62.2,56.6,30.05,West,276,0.0,0.0,82,0.00,,,0.00,Wunderground v.1.15,2013-07-29 01:44:00,
2013-07-28 21:50:00,62.1,56.5,30.05,West,276,0.0,0.0,82,0.00,,,0.00,Wunderground v.1.15,2013-07-29 01:50:00,
2013-07-28 21:55:00,62.0,56.4,30.05,West,276,0.0,0.0,82,0.00,,,0.00,Wunderground v.1.15,2013-07-29 01:55:00,
2013-07-28 22:00:00,61.8,56.6,30.06,West,276,0.0,0.0,83,0.00,,,0.00,Wunderground v.1.15,2013-07-29 02:00:00,
2013-07-28 22:06:00,61.4,56.2,30.06,West,276,0.0,0.0,83,0.00,,,0.00,Wunderground v.1.15,2013-07-29 02:06:00,
2013-07-28 22:11:00,61.2,56.7,30.06,West,276,0.0,0.0,85,0.00,,,0.00,Wunderground v.1.15,2013-07-29 02:11:00,
2013-07-28 22:16:00,61.1,56.9,30.06,West,275,0.0,0.0,86,0.00,,,0.00,Wunderground v.1.15,2013-07-29 02:16:00,
2013-07-28 22:22:00,60.9,56.7,30.06,West,275,0.0,0.0,86,0.00,,,0.00,Wunderground v.1.15,2013-07-29 02:22:00,
2013-07-28 22:27:00,60.5,56.6,30.06,West,276,0.0,0.0,87,0.00,,,0.00,Wunderground v.1.15,2013-07-29 02:27:00,
2013-07-28 22:33:00,60.2,56.6,30.07,West,275,0.0,0.0,88,0.00,,,0.00,Wunderground v.1.15,2013-07-29 02:33:00,
2013-07-28 22:38:00,60.1,56.5,30.07,West,276,0.0,0.0,88,0.00,,,0.00,Wunderground v.1.15,2013-07-29 02:38:00,
2013-07-28 22:44:00,60.0,56.4,30.07,West,275,0.0,0.0,88,0.00,,,0.00,Wunderground v.1.15,2013-07-29 02:44:00,
2013-07-28 22:49:00,60.0,56.4,30.07,West,276,0.0,0.0,88,0.00,,,0.00,Wunderground v.1.15,2013-07-29 02:49:00,
2013-07-28 22:55:00,59.8,56.2,30.07,West,262,0.0,0.0,88,0.00,,,0.00,Wunderground v.1.15,2013-07-29 02:55:00,
2013-07-28 23:00:00,59.7,55.8,30.07,West,262,0.0,0.0,87,0.00,,,0.00,Wunderground v.1.15,2013-07-29 03:00:00,
2013-07-28 23:06:00,59.4,56.2,30.07,West,262,0.0,0.0,89,0.00,,,0.00,Wunderground v.1.15,2013-07-29 03:06:00,
2013-07-28 23:12:00,59.5,55.6,30.07,West,262,0.0,0.0,87,0.00,,,0.00,Wunderground v.1.15,2013-07-29 03:12:00,
2013-07-28 23:18:00,59.4,55.8,30.07,West,262,0.0,0.0,88,0.00,,,0.00,Wunderground v.1.15,2013-07-29 03:18:00,
2013-07-28 23:24:00,59.0,55.8,30.07,West,262,0.0,0.0,89,0.00,,,0.00,Wunderground v.1.15,2013-07-29 03:24:00,
2013-07-28 23:30:00,58.7,55.8,30.07,West,262,0.0,0.0,90,0.00,,,0.00,Wunderground v.1.15,2013-07-29 03:30:00,
2013-07-28 23:36:00,58.4,55.5,30.07,West,262,0.0,0.0,90,0.00,,,0.00,Wunderground v.1.15,2013-07-29 03:36:00,
2013-07-28 23:42:00,58.6,55.7,30.07,West,262,0.0,0.0,90,0.00,,,0.00,Wunderground v.1.15,2013-07-29 03:42:00,
2013-07-28 23:47:00,58.5,55.6,30.07,SW,226,0.0,0.0,90,0.00,,,0.00,Wunderground v.1.15,2013-07-29 03:47:00,
2013-07-28 23:53:00,58.1,55.5,30.07,SW,228,0.0,0.0,91,0.00,,,0.00,Wunderground v.1.15,2013-07-29 03:53:00,
2013-07-28 23:59:00,58.2,55.9,30.07,SW,226,0.0,0.0,92,0.00,,,0.00,Wunderground v.1.15,2013-07-29 03:59:00,